VOE89ZU LFPO-LFBT

Flight info

Callsign VOE89ZU
Flight time 1h 3m
Altitude 29000
Route ERIXU DCT ETAMO DCT GUERE DCT EVPOK DCT AGN
Aircraft A319/M-SDFGIJ1RWY/LB1

Departure

Time 2026-05-07 11:48
Airport Paris-Orly Airport (LFPO)

Arrival

Time 2026-05-07 12:51
Airport Tarbes-Lourdes-Pyrénées Airport (LFBT)
Time Latitude Longitude Altitude Speed Heading
2026-05-07 11:32 48.73042 2.35862 302 ft 0 kts 134°
2026-05-07 11:38 48.73050 2.35850 284 ft 4 kts 136°
2026-05-07 11:39 48.73070 2.35823 286 ft 4 kts 143°
2026-05-07 11:39 48.73092 2.35802 290 ft 4 kts 160°
2026-05-07 11:39 48.73116 2.35797 287 ft 4 kts 212°
2026-05-07 11:39 48.73122 2.35804 285 ft 0 kts 237°
2026-05-07 11:43 48.73118 2.35796 286 ft 3 kts 236°
2026-05-07 11:43 48.73101 2.35758 287 ft 6 kts 237°
2026-05-07 11:43 48.73071 2.35686 285 ft 10 kts 237°
2026-05-07 11:44 48.73027 2.35585 289 ft 13 kts 233°
2026-05-07 11:44 48.72940 2.35526 285 ft 15 kts 176°
2026-05-07 11:44 48.72836 2.35567 287 ft 16 kts 164°
2026-05-07 11:44 48.72730 2.35613 285 ft 16 kts 164°
2026-05-07 11:45 48.72621 2.35658 286 ft 17 kts 165°
2026-05-07 11:45 48.72507 2.35702 286 ft 17 kts 172°
2026-05-07 11:45 48.72417 2.35619 284 ft 13 kts 173°
2026-05-07 11:45 48.72325 2.35634 284 ft 14 kts 197°
2026-05-07 11:46 48.72234 2.35600 284 ft 14 kts 173°
2026-05-07 11:46 48.72140 2.35636 287 ft 14 kts 164°
2026-05-07 11:46 48.72050 2.35706 284 ft 15 kts 133°
2026-05-07 11:46 48.71995 2.35844 288 ft 16 kts 117°
2026-05-07 11:47 48.71962 2.35964 286 ft 12 kts 80°
2026-05-07 11:47 48.72003 2.36192 288 ft 50 kts 74°
2026-05-07 11:47 48.72167 2.37083 284 ft 123 kts 74°
2026-05-07 11:47 48.72435 2.38556 571 ft 150 kts 76°
2026-05-07 11:48 48.72705 2.40069 1276 ft 150 kts 75°
2026-05-07 11:48 48.72988 2.41593 1962 ft 151 kts 73°
2026-05-07 11:48 48.73290 2.43212 2455 ft 171 kts 73°
2026-05-07 11:48 48.73632 2.45052 2880 ft 194 kts 73°
2026-05-07 11:49 48.73998 2.47130 3321 ft 219 kts 79°
2026-05-07 11:49 48.74145 2.49553 3860 ft 243 kts 85°
2026-05-07 11:49 48.74244 2.52259 4568 ft 261 kts 86°
2026-05-07 11:49 48.74324 2.55002 5534 ft 267 kts 89°
2026-05-07 11:50 48.73939 2.57758 6507 ft 274 kts 119°
2026-05-07 11:50 48.72595 2.59788 7462 ft 278 kts 151°
2026-05-07 11:50 48.70793 2.60855 8469 ft 280 kts 166°
2026-05-07 11:50 48.68887 2.61496 9482 ft 282 kts 171°
2026-05-07 11:51 48.66929 2.61848 10369 ft 286 kts 184°
2026-05-07 11:51 48.64973 2.61290 11214 ft 289 kts 200°
2026-05-07 11:51 48.63118 2.60021 11855 ft 302 kts 213°
2026-05-07 11:51 48.61469 2.57895 12219 ft 321 kts 230°
2026-05-07 11:52 48.60023 2.55286 12943 ft 328 kts 231°
2026-05-07 11:52 48.58548 2.52613 13790 ft 332 kts 231°
2026-05-07 11:52 48.57062 2.49919 14563 ft 335 kts 231°
2026-05-07 11:52 48.55559 2.47201 15299 ft 339 kts 231°
2026-05-07 11:53 48.54043 2.44463 16032 ft 342 kts 231°
2026-05-07 11:53 48.52397 2.41837 16753 ft 347 kts 222°
2026-05-07 11:53 48.50421 2.39710 17485 ft 352 kts 212°
2026-05-07 11:53 48.48289 2.37838 18224 ft 356 kts 211°
2026-05-07 11:54 48.46140 2.35956 18865 ft 360 kts 211°
2026-05-07 11:54 48.43967 2.34050 19495 ft 363 kts 211°
2026-05-07 11:54 48.41778 2.32125 20123 ft 366 kts 212°
2026-05-07 11:54 48.39571 2.30176 20744 ft 370 kts 212°
2026-05-07 11:55 48.38098 2.28874 21160 ft 372 kts 212°
2026-05-07 11:55 48.35850 2.26889 21787 ft 376 kts 212°
2026-05-07 11:55 48.33585 2.24894 22418 ft 379 kts 211°
2026-05-07 11:55 48.31201 2.23147 23034 ft 384 kts 201°
2026-05-07 11:56 48.28604 2.22111 23630 ft 390 kts 190°
2026-05-07 11:56 48.25880 2.21864 24136 ft 395 kts 179°
2026-05-07 11:56 48.23138 2.22378 24637 ft 399 kts 172°
2026-05-07 11:56 48.20386 2.23054 25140 ft 402 kts 172°
2026-05-07 11:57 48.17617 2.23727 25615 ft 405 kts 172°
2026-05-07 11:57 48.14822 2.24405 26098 ft 408 kts 172°
2026-05-07 11:57 48.12008 2.25088 26570 ft 411 kts 172°
2026-05-07 11:57 48.09176 2.25769 27038 ft 414 kts 173°
2026-05-07 11:58 48.06310 2.26114 27479 ft 415 kts 179°
2026-05-07 11:58 48.03411 2.26295 27938 ft 418 kts 179°
2026-05-07 11:58 48.00492 2.26476 28382 ft 421 kts 179°
2026-05-07 11:58 47.97561 2.26660 28823 ft 424 kts 179°
2026-05-07 11:59 47.94605 2.26848 29032 ft 426 kts 179°
2026-05-07 11:59 47.91600 2.27036 29061 ft 438 kts 179°
2026-05-07 11:59 47.88518 2.27227 29059 ft 449 kts 179°
2026-05-07 12:00 47.82139 2.27632 29054 ft 467 kts 179°
2026-05-07 12:00 47.75601 2.28049 29052 ft 471 kts 179°
2026-05-07 12:01 47.69056 2.28468 29053 ft 471 kts 179°
2026-05-07 12:01 47.62503 2.28891 29048 ft 471 kts 179°
2026-05-07 12:02 47.55951 2.29304 29042 ft 471 kts 179°
2026-05-07 12:02 47.49406 2.29705 29036 ft 471 kts 179°
2026-05-07 12:03 47.42859 2.30119 29037 ft 471 kts 179°
2026-05-07 12:03 47.36303 2.30525 29040 ft 471 kts 179°
2026-05-07 12:04 47.29756 2.30924 29036 ft 471 kts 180°
2026-05-07 12:04 47.23216 2.31336 29039 ft 470 kts 180°
2026-05-07 12:05 47.16679 2.31745 29039 ft 470 kts 180°
2026-05-07 12:05 47.10148 2.32147 29040 ft 470 kts 180°
2026-05-07 12:06 47.03619 2.32541 29050 ft 469 kts 180°
2026-05-07 12:06 46.97098 2.32937 29050 ft 470 kts 180°
2026-05-07 12:07 46.90567 2.33343 29052 ft 470 kts 180°
2026-05-07 12:07 46.84044 2.33490 29049 ft 466 kts 189°
2026-05-07 12:08 46.77772 2.31326 29050 ft 463 kts 197°
2026-05-07 12:08 46.71551 2.28923 29046 ft 463 kts 197°
2026-05-07 12:09 46.65329 2.26540 29034 ft 462 kts 197°
2026-05-07 12:09 46.59104 2.24171 29034 ft 462 kts 197°
2026-05-07 12:10 46.52883 2.21803 29024 ft 462 kts 197°
2026-05-07 12:10 46.46667 2.19425 29027 ft 462 kts 197°
2026-05-07 12:11 46.40450 2.17047 29030 ft 462 kts 197°
2026-05-07 12:11 46.34239 2.14692 29015 ft 462 kts 197°
2026-05-07 12:12 46.28063 2.12356 29022 ft 461 kts 197°
2026-05-07 12:12 46.21858 2.10014 29024 ft 461 kts 197°
2026-05-07 12:12 46.18858 2.08466 29020 ft 457 kts 208°
2026-05-07 12:13 46.16157 2.06082 29008 ft 454 kts 217°
2026-05-07 12:13 46.10988 2.00850 29003 ft 454 kts 217°
2026-05-07 12:14 46.05809 1.95637 29013 ft 454 kts 216°
2026-05-07 12:14 46.00628 1.90426 29015 ft 454 kts 216°
2026-05-07 12:15 45.95446 1.85227 28987 ft 454 kts 216°
2026-05-07 12:15 45.92856 1.82640 29404 ft 453 kts 216°
2026-05-07 12:15 45.90286 1.80076 30074 ft 448 kts 216°
2026-05-07 12:15 45.87733 1.77528 30542 ft 445 kts 217°
2026-05-07 12:16 45.85195 1.74994 30996 ft 443 kts 217°
2026-05-07 12:16 45.82669 1.72472 31453 ft 441 kts 217°
2026-05-07 12:16 45.80156 1.69964 31897 ft 439 kts 217°
2026-05-07 12:16 45.77652 1.67472 32340 ft 437 kts 217°
2026-05-07 12:17 45.75158 1.64996 32789 ft 436 kts 217°
2026-05-07 12:17 45.72673 1.62532 33262 ft 433 kts 217°
2026-05-07 12:17 45.70203 1.60088 33731 ft 431 kts 217°
2026-05-07 12:17 45.67734 1.57647 33991 ft 430 kts 217°
2026-05-07 12:18 45.65277 1.55220 34013 ft 429 kts 217°
2026-05-07 12:18 45.60369 1.50376 34010 ft 429 kts 217°
2026-05-07 12:19 45.55500 1.45570 34005 ft 428 kts 217°
2026-05-07 12:19 45.50602 1.40750 34010 ft 428 kts 217°
2026-05-07 12:20 45.45280 1.36919 34014 ft 434 kts 198°
2026-05-07 12:20 45.39385 1.34992 34010 ft 435 kts 196°
2026-05-07 12:21 45.33484 1.33094 34000 ft 435 kts 196°
2026-05-07 12:21 45.27579 1.31173 34003 ft 435 kts 196°
2026-05-07 12:22 45.21674 1.29263 34012 ft 435 kts 196°
2026-05-07 12:22 45.15757 1.27348 33986 ft 437 kts 195°
2026-05-07 12:23 45.09818 1.25428 33990 ft 439 kts 195°
2026-05-07 12:23 45.03856 1.23514 33997 ft 440 kts 195°
2026-05-07 12:24 44.97882 1.21604 33981 ft 441 kts 195°
2026-05-07 12:24 44.91893 1.19688 33988 ft 441 kts 195°
2026-05-07 12:25 44.85951 1.17784 33997 ft 441 kts 195°
2026-05-07 12:25 44.79965 1.15870 34000 ft 441 kts 195°
2026-05-07 12:26 44.74009 1.13978 34007 ft 428 kts 195°
2026-05-07 12:26 44.71153 1.13075 33793 ft 415 kts 195°
2026-05-07 12:26 44.68348 1.12188 33222 ft 411 kts 195°
2026-05-07 12:26 44.65582 1.11312 32722 ft 405 kts 195°
2026-05-07 12:27 44.62848 1.10451 32221 ft 400 kts 195°
2026-05-07 12:27 44.60148 1.09600 31726 ft 396 kts 195°
2026-05-07 12:27 44.57480 1.08754 31261 ft 391 kts 195°
2026-05-07 12:27 44.54839 1.07915 30789 ft 387 kts 195°
2026-05-07 12:28 44.52231 1.07089 30330 ft 383 kts 195°
2026-05-07 12:28 44.49650 1.06271 29842 ft 379 kts 195°
2026-05-07 12:28 44.47098 1.05464 29386 ft 374 kts 194°
2026-05-07 12:28 44.44571 1.04665 28951 ft 369 kts 194°
2026-05-07 12:29 44.42086 1.03885 28536 ft 364 kts 194°
2026-05-07 12:29 44.39630 1.03115 28119 ft 360 kts 194°
2026-05-07 12:29 44.37200 1.02352 27722 ft 356 kts 194°
2026-05-07 12:29 44.34798 1.01596 27328 ft 352 kts 194°
2026-05-07 12:30 44.32416 1.00847 26936 ft 348 kts 194°
2026-05-07 12:30 44.30066 1.00113 26552 ft 344 kts 194°
2026-05-07 12:30 44.27740 0.99389 26170 ft 340 kts 194°
2026-05-07 12:30 44.25447 0.98674 25786 ft 336 kts 194°
2026-05-07 12:31 44.23175 0.97964 25393 ft 333 kts 194°
2026-05-07 12:31 44.20920 0.97260 24993 ft 330 kts 194°
2026-05-07 12:31 44.18687 0.96562 24590 ft 328 kts 194°
2026-05-07 12:31 44.16499 0.95881 24190 ft 325 kts 194°
2026-05-07 12:32 44.14300 0.95195 23783 ft 323 kts 194°
2026-05-07 12:32 44.12108 0.94512 23336 ft 322 kts 194°
2026-05-07 12:32 44.09934 0.93833 22905 ft 319 kts 194°
2026-05-07 12:32 44.07777 0.93161 22495 ft 316 kts 194°
2026-05-07 12:33 44.03515 0.91839 21704 ft 312 kts 194°
2026-05-07 12:33 44.01402 0.91180 21316 ft 310 kts 194°
2026-05-07 12:33 43.99300 0.90524 20923 ft 309 kts 194°
2026-05-07 12:34 43.97206 0.89874 20537 ft 307 kts 194°
2026-05-07 12:34 43.95124 0.89235 20156 ft 306 kts 193°
2026-05-07 12:34 43.93048 0.88602 19773 ft 305 kts 193°
2026-05-07 12:34 43.90984 0.87968 19397 ft 304 kts 193°
2026-05-07 12:35 43.88981 0.87076 19021 ft 302 kts 204°
2026-05-07 12:35 43.87124 0.85631 18582 ft 314 kts 215°
2026-05-07 12:35 43.85342 0.83836 18084 ft 319 kts 216°
2026-05-07 12:35 43.83547 0.82032 17594 ft 319 kts 216°
2026-05-07 12:36 43.81750 0.80235 17118 ft 318 kts 216°
2026-05-07 12:36 43.79957 0.78450 16660 ft 317 kts 216°
2026-05-07 12:36 43.78163 0.76667 16197 ft 317 kts 216°
2026-05-07 12:36 43.76368 0.74882 15737 ft 318 kts 215°
2026-05-07 12:37 43.74602 0.73124 15563 ft 308 kts 215°
2026-05-07 12:37 43.72870 0.71402 15240 ft 305 kts 215°
2026-05-07 12:37 43.71150 0.69696 14884 ft 304 kts 215°
2026-05-07 12:37 43.69434 0.67997 14524 ft 302 kts 215°
2026-05-07 12:38 43.67731 0.66310 14168 ft 301 kts 215°
2026-05-07 12:38 43.66039 0.64632 13664 ft 298 kts 215°
2026-05-07 12:38 43.64358 0.62968 12998 ft 296 kts 215°
2026-05-07 12:38 43.62695 0.61325 12364 ft 293 kts 216°
2026-05-07 12:39 43.61047 0.59694 11798 ft 288 kts 216°
2026-05-07 12:39 43.59433 0.58096 11312 ft 284 kts 216°
2026-05-07 12:39 43.57833 0.56514 10889 ft 283 kts 217°
2026-05-07 12:39 43.56239 0.54940 10479 ft 282 kts 217°
2026-05-07 12:40 43.54644 0.53366 10066 ft 282 kts 217°
2026-05-07 12:40 43.53065 0.51808 9627 ft 283 kts 217°
2026-05-07 12:40 43.51450 0.50216 9211 ft 281 kts 217°
2026-05-07 12:40 43.49863 0.48655 8788 ft 280 kts 217°
2026-05-07 12:41 43.48287 0.47108 8389 ft 278 kts 217°
2026-05-07 12:41 43.46709 0.45557 7974 ft 277 kts 217°
2026-05-07 12:41 43.45675 0.44541 7708 ft 275 kts 217°
2026-05-07 12:41 43.43588 0.42497 7171 ft 276 kts 217°
2026-05-07 12:42 43.42040 0.40978 6762 ft 278 kts 217°
2026-05-07 12:42 43.40510 0.39363 6355 ft 277 kts 226°
2026-05-07 12:42 43.39791 0.37902 6097 ft 274 kts 246°
2026-05-07 12:42 43.38884 0.34670 5577 ft 273 kts 249°
2026-05-07 12:43 43.38206 0.32244 5182 ft 272 kts 249°
2026-05-07 12:43 43.37746 0.30604 4912 ft 273 kts 248°
2026-05-07 12:43 43.37061 0.28176 4501 ft 274 kts 248°
2026-05-07 12:43 43.36368 0.25723 4095 ft 275 kts 248°
2026-05-07 12:44 43.35675 0.23276 3673 ft 274 kts 247°
2026-05-07 12:44 43.34999 0.20890 3568 ft 262 kts 248°
2026-05-07 12:44 43.34356 0.18615 3491 ft 250 kts 248°
2026-05-07 12:44 43.33743 0.16436 3403 ft 239 kts 248°
2026-05-07 12:45 43.33187 0.14331 3285 ft 230 kts 255°
2026-05-07 12:45 43.32880 0.12210 3202 ft 227 kts 259°
2026-05-07 12:45 43.32576 0.10090 3098 ft 224 kts 258°
2026-05-07 12:45 43.32261 0.08002 2997 ft 222 kts 254°
2026-05-07 12:46 43.31466 0.06274 3005 ft 209 kts 212°
2026-05-07 12:46 43.30187 0.05590 3009 ft 200 kts 192°
2026-05-07 12:46 43.28884 0.04968 3053 ft 193 kts 197°
2026-05-07 12:46 43.27634 0.04327 2930 ft 188 kts 197°
2026-05-07 12:47 43.26436 0.03715 2717 ft 179 kts 195°
2026-05-07 12:47 43.25282 0.03128 2580 ft 175 kts 195°
2026-05-07 12:47 43.24099 0.03038 2593 ft 167 kts 165°
2026-05-07 12:47 43.23010 0.03485 2583 ft 165 kts 156°
2026-05-07 12:48 43.21906 0.04000 2565 ft 170 kts 157°
2026-05-07 12:48 43.20772 0.04507 2545 ft 174 kts 166°
2026-05-07 12:48 43.19575 0.04255 2574 ft 177 kts 198°
2026-05-07 12:48 43.18429 0.03639 2565 ft 178 kts 200°
2026-05-07 12:49 43.17326 0.02989 2553 ft 165 kts 200°
2026-05-07 12:49 43.16324 0.02359 2525 ft 155 kts 202°
2026-05-07 12:49 43.15355 0.01779 2495 ft 150 kts 202°
2026-05-07 12:49 43.14652 0.00771 2328 ft 150 kts 255°
2026-05-07 12:50 43.14723 -0.00593 2154 ft 145 kts 293°
2026-05-07 12:50 43.15366 -0.01576 1866 ft 140 kts 347°
2026-05-07 12:50 43.16306 -0.01437 1541 ft 139 kts 24°
2026-05-07 12:50 43.17211 -0.00969 1273 ft 138 kts 24°
2026-05-07 12:51 43.18032 -0.00549 1218 ft 109 kts 22°
2026-05-07 12:51 43.18584 -0.00270 1196 ft 63 kts 20°
2026-05-07 12:51 43.18866 -0.00126 1187 ft 32 kts 20°
2026-05-07 12:51 43.19046 -0.00016 1182 ft 18 kts 30°
2026-05-07 12:52 43.19108 0.00000 1179 ft 2 kts 283°
2026-05-07 12:52 43.19094 -0.00014 1177 ft 3 kts 205°
2026-05-07 12:52 43.19069 -0.00025 1177 ft 4 kts 199°
2026-05-07 12:52 43.19035 -0.00041 1182 ft 6 kts 199°
2026-05-07 12:53 43.18990 -0.00064 1184 ft 8 kts 200°
2026-05-07 12:53 43.18929 -0.00095 1185 ft 11 kts 201°
2026-05-07 12:53 43.18853 -0.00135 1188 ft 12 kts 200°
2026-05-07 12:53 43.18770 -0.00178 1191 ft 13 kts 200°
2026-05-07 12:54 43.18676 -0.00225 1193 ft 15 kts 199°
2026-05-07 12:54 43.18570 -0.00266 1197 ft 15 kts 179°
2026-05-07 12:54 43.18521 -0.00163 1198 ft 14 kts 104°
2026-05-07 12:54 43.18498 -0.00037 1197 ft 13 kts 104°
2026-05-07 12:55 43.18477 0.00079 1217 ft 12 kts 105°
2026-05-07 12:55 43.18432 0.00163 1217 ft 10 kts 120°
2026-05-07 12:55 43.18418 0.00245 1216 ft 7 kts 72°
2026-05-07 12:55 43.18456 0.00289 1215 ft 7 kts 37°
2026-05-07 12:56 43.18478 0.00312 1214 ft 1 kts 37°